CW7174 Weather Reports


Display with metric or nautical units.
time (UTC)temp
F
wind
direction
speed
MPH
gust
MPH
rain 1hr
in
rain 24hr
in
rain mn
in
humidity
%
barometer
mb
20210621111835 69 180 2.0 4.0 0.00 0.00 0.00 99 1009.3
20210621111329 69 135 1.0 3.0 0.00 0.00 0.00 99 1009.4
20210621110825 69 180 0.0 6.0 0.00 0.00 0.00 99 1009.4
20210621110254 69 225 2.0 6.0 0.00 0.00 0.00 99 1009.4
20210621105729 69 158 1.0 3.0 0.00 0.00 0.00 99 1009.4
20210621105203 69 158 2.0 4.0 0.00 0.00 0.00 99 1009.4
20210621104658 69 180 2.0 4.0 0.00 0.00 0.00 99 1009.3
20210621104153 69 180 2.0 3.0 0.00 0.00 0.00 99 1009.3
20210621103653 69 158 1.0 6.0 0.00 0.00 0.00 99 1009.5
20210621103151 69 180 2.0 6.0 0.00 0.00 0.00 99 1009.5
20210621102644 69 158 1.0 3.0 0.00 0.00 0.00 99 1009.5
20210621102141 69 158 1.0 3.0 0.00 0.00 0.00 99 1009.3
20210621101627 69 225 0.0 3.0 0.00 0.00 0.00 99 1009.3
20210621101058 69 158 0.0 3.0 0.00 0.00 0.00 99 1009.3
20210621100543 69 158 1.0 3.0 0.00 0.00 0.00 99 1009.3
20210621100037 69 202 1.0 4.0 0.00 0.00 0.00 99 1009.3
20210621095532 69 158 1.0 4.0 0.00 0.00 0.00 99 1009.3
20210621095020 69 112 0.0 3.0 0.00 0.00 0.00 99 1009.3
20210621094507 69 158 0.0 3.0 0.00 0.00 0.00 99 1009.4
20210621093959 69 158 0.0 0.0 0.00 0.00 0.00 99 1009.4
20210621093455 69 202 0.0 0.0 0.00 0.00 0.00 99 1009.4
20210621092942 69 180 0.0 0.0 0.00 0.00 0.00 99 1009.4
20210621092413 69 158 0.0 3.0 0.00 0.00 0.00 99 1009.4
20210621091859 69 180 1.0 3.0 0.00 0.00 0.00 99 1009.4
20210621091343 69 22 0.0 4.0 0.00 0.00 0.00 99 1009.5
20210621090838 69 158 1.0 4.0 0.00 0.00 0.00 99 1009.5
20210621090335 69 158 0.0 3.0 0.00 0.00 0.00 99 1009.5
20210621085806 69 180 1.0 3.0 0.00 0.00 0.00 99 1009.4
20210621085252 69 202 0.0 1.0 0.00 0.00 0.00 99 1009.4
20210621084722 69 180 0.0 3.0 0.00 0.00 0.00 99 1009.2
20210621084217 69 248 1.0 4.0 0.00 0.00 0.00 99 1009.2
20210621083711 69 158 1.0 4.0 0.00 0.00 0.00 99 1009.2
20210621083159 69 158 1.0 4.0 0.00 0.00 0.00 99 1009.2
20210621082644 69 202 0.0 3.0 0.00 0.00 0.00 99 1009.2
20210621082138 69 180 1.0 3.0 0.00 0.00 0.00 99 1009.3
20210621081623 69 180 1.0 3.0 0.00 0.00 0.00 99 1009.3
20210621081123 69 180 1.0 4.0 0.00 0.00 0.00 99 1009.4
20210621080606 69 158 2.0 4.0 0.00 0.00 0.00 99 1009.4
20210621080103 69 180 0.0 0.0 0.00 0.00 0.00 99 1009.4
20210621075555 69 180 0.0 2.0 0.00 0.00 0.00 99 1009.4
20210621075045 69 202 0.0 2.0 0.00 0.00 0.00 99 1009.4
20210621074529 69 180 0.0 2.0 0.00 0.00 0.00 99 1009.2
20210621074022 69 180 0.0 2.0 0.00 0.00 0.00 99 1009.2
20210621073518 69 202 1.0 2.0 0.00 0.00 0.00 99 1009.2
20210621073007 69 135 0.0 4.0 0.00 0.00 0.00 99 1009.2
20210621072438 69 180 1.0 4.0 0.00 0.00 0.00 99 1009.3
20210621071906 69 202 0.0 2.0 0.00 0.00 0.00 99 1009.3
20210621071352 69 202 0.0 2.0 0.00 0.00 0.00 99 1009.3
20210621070845 69 180 0.0 3.0 0.00 0.00 0.00 99 1009.4
20210621070331 69 202 1.0 3.0 0.00 0.00 0.00 99 1009.4
20210621065829 69 202 0.0 4.0 0.00 0.00 0.00 99 1009.4
20210621065316 69 202 1.0 4.0 0.00 0.01 0.00 99 1009.4
20210621064808 69 180 0.0 0.0 0.00 0.01 0.00 99 1009.3
20210621064304 69 180 0.0 0.0 0.00 0.01 0.00 99 1009.3
20210621063752 69 270 0.0 3.0 0.00 0.01 0.00 99 1009.3
20210621063237 69 202 0.0 3.0 0.00 0.01 0.00 99 1009.2
20210621062731 70 225 0.0 3.0 0.00 0.01 0.00 99 1009.2
20210621062225 70 180 0.0 2.0 0.00 0.01 0.00 98 1009.3
20210621061716 70 180 0.0 2.0 0.00 0.01 0.00 98 1009.3
20210621061201 70 158 0.0 3.0 0.00 0.01 0.00 98 1009.4
20210621060653 70 158 1.0 3.0 0.00 0.01 0.00 98 1009.4
20210621060150 70 158 1.0 3.0 0.00 0.01 0.00 97 1009.5
20210621055637 70 180 1.0 4.0 0.00 0.01 0.00 97 1009.5
20210621055123 70 180 2.0 4.0 0.00 0.01 0.00 97 1009.5
20210621054616 70 202 1.0 3.0 0.00 0.01 0.00 97 1009.2
20210621054101 70 225 2.0 3.0 0.00 0.01 0.00 96 1009.2
20210621053559 70 180 0.0 3.0 0.00 0.01 0.00 96 1009.3
20210621053029 70 180 1.0 3.0 0.00 0.01 0.00 96 1009.3
20210621052516 70 158 1.0 3.0 0.00 0.01 0.00 96 1009.3
20210621052008 70 180 1.0 2.0 0.00 0.01 0.00 95 1009.3
20210621051438 70 180 1.0 4.0 0.00 0.01 0.00 95 1009.3
20210621050909 71 180 2.0 4.0 0.00 0.01 0.00 95 1009.4
20210621050403 71 180 1.0 3.0 0.00 0.01 0.00 94 1009.4
20210621045852 71 158 2.0 4.0 0.00 0.01 0.00 94 1009.4
20210621045337 71 158 2.0 4.0 0.00 0.01 0.00 94 1009.4
20210621044823 71 225 1.0 4.0 0.00 0.01 0.00 94 1009.7
20210621044316 71 202 1.0 3.0 0.00 0.01 0.00 94 1009.7
20210621043815 71 180 1.0 3.0 0.00 0.01 0.00 94 1009.7
20210621043300 71 202 2.0 3.0 0.00 0.01 0.00 94 1009.7
20210621042755 71 180 1.0 3.0 0.00 0.01 0.00 94 1009.7
20210621042255 70 202 1.0 3.0 0.00 0.01 0.00 94 1009.8
20210621041737 70 180 0.0 0.0 0.00 0.01 0.00 94 1009.8
20210621041222 70 180 0.0 0.0 0.00 0.01 0.00 94 1009.9
20210621040653 70 135 0.0 0.0 0.00 0.01 0.00 94 1009.9
20210621040145 70 135 0.0 0.0 0.00 0.01 0.00 93 1010.2
20210621035642 71 135 0.0 0.0 0.00 0.01 0.01 93 1010.2
20210621035131 71 135 0.0 0.0 0.00 0.01 0.01 92 1010.2
20210621034614 71 158 0.0 0.0 0.00 0.01 0.01 92 1010.4
20210621034108 71 158 0.0 0.0 0.00 0.01 0.01 92 1010.4
20210621033538 71 158 0.0 0.0 0.00 0.01 0.01 92 1010.6
20210621033008 71 180 0.0 0.0 0.00 0.01 0.01 91 1010.6
20210621032504 72 202 0.0 1.0 0.00 0.01 0.01 90 1010.6
20210621031952 72 225 0.0 1.0 0.00 0.01 0.01 90 1010.6
20210621031422 72 225 0.0 0.0 0.00 0.01 0.01 90 1010.6
20210621030852 72 180 0.0 0.0 0.00 0.01 0.01 89 1010.5
20210621030338 72 180 0.0 0.0 0.00 0.01 0.01 89 1010.5
20210621025808 72 180 0.0 0.0 0.00 0.01 0.01 89 1010.5
20210621025301 72 202 0.0 0.0 0.00 0.01 0.01 88 1010.5
20210621024757 73 180 0.0 0.0 0.00 0.01 0.01 88 1010.5
20210621024245 73 158 0.0 0.0 0.00 0.01 0.01 88 1010.5
20210621023730 73 180 0.0 0.0 0.00 0.01 0.01 87 1010.5
20210621023223 73 180 0.0 0.0 0.00 0.01 0.01 87 1010.5
20210621022718 74 180 0.0 2.0 0.00 0.01 0.01 86 1010.5
20210621022207 74 158 0.0 2.0 0.00 0.01 0.01 86 1010.7
20210621021653 74 180 0.0 2.0 0.00 0.01 0.01 86 1010.7
20210621021137 74 180 0.0 2.0 0.00 0.01 0.01 86 1010.7
20210621020632 74 180 0.0 2.0 0.00 0.01 0.01 86 1010.7
20210621020131 74 90 0.0 1.0 0.00 0.01 0.01 86 1010.9
20210621015631 74 202 0.0 2.0 0.00 0.01 0.01 85 1010.9
20210621015108 74 180 0.0 2.0 0.00 0.01 0.01 85 1010.9
20210621014605 74 202 0.0 2.0 0.00 0.01 0.01 84 1010.8
20210621014053 74 202 0.0 3.0 0.00 0.01 0.01 84 1010.8
20210621013537 74 135 0.0 3.0 0.00 0.01 0.01 83 1010.8
20210621013031 74 158 0.0 3.0 0.00 0.01 0.01 83 1010.8
20210621012502 74 202 0.0 4.0 0.00 0.01 0.01 82 1010.5
20210621011956 74 225 2.0 4.0 0.00 0.01 0.01 82 1010.5
20210621011446 74 202 1.0 6.0 0.00 0.01 0.01 82 1010.5
20210621010935 74 180 2.0 6.0 0.00 0.01 0.01 82 1010.3
20210621010423 74 225 0.0 4.0 0.00 0.01 0.01 83 1010.3
20210621005854 74 202 2.0 5.0 0.00 0.01 0.01 83 1010.2
20210621005354 74 180 1.0 5.0 0.00 0.01 0.01 83 1010.2
20210621004852 74 90 2.0 6.0 0.00 0.01 0.01 83 1010.2
20210621004346 74 112 3.0 6.0 0.00 0.01 0.01 83 1010.2
20210621003832 74 158 1.0 4.0 0.00 0.01 0.01 83 1010.2
20210621003332 74 158 1.0 4.0 0.00 0.01 0.01 83 1010.0
20210621002816 74 158 0.0 4.0 0.00 0.01 0.01 83 1010.0
20210621002311 74 158 2.0 4.0 0.00 0.01 0.01 82 1010.1
20210621001755 74 135 2.0 4.0 0.00 0.01 0.01 81 1010.1
20210621001253 75 180 1.0 5.0 0.00 0.01 0.01 81 1010.1
20210621000710 75 180 1.0 7.0 0.00 0.01 0.01 80 1010.1
20210621000211 75 180 3.0 7.0 0.00 0.01 0.01 79 1010.1
20210620235702 76 270 3.0 10.0 0.00 0.01 0.01 79 1010.2
20210620235157 76 180 5.0 10.0 0.00 0.01 0.01 79 1010.2
20210620234645 76 158 2.0 7.0 0.00 0.01 0.01 80 1010.3
20210620234116 76 315 3.0 9.0 0.00 0.01 0.01 80 1010.3
20210620233602 76 112 4.0 9.0 0.00 0.01 0.01 81 1010.1
20210620233055 76 202 5.0 8.0 0.00 0.01 0.01 81 1010.1
20210620232550 76 158 3.0 6.0 0.00 0.01 0.01 81 1010.1
20210620232038 76 180 2.0 10.0 0.00 0.01 0.01 81 1010.1
20210620231528 76 180 4.0 10.0 0.00 0.02 0.01 81 1010.1
20210620231017 76 248 2.0 5.0 0.00 0.02 0.01 81 1009.8
20210620230447 76 180 2.0 5.0 0.00 0.02 0.01 81 1009.8
20210620225933 77 158 3.0 5.0 0.00 0.02 0.01 81 1010.0
20210620225431 77 158 1.0 4.0 0.00 0.02 0.01 81 1010.0
20210620224916 77 180 2.0 11.0 0.00 0.03 0.01 81 1010.1
20210620224411 77 180 5.0 11.0 0.00 0.39 0.01 80 1010.1
20210620223910 77 180 4.0 5.0 0.00 0.39 0.01 80 1010.1
20210620223354 77 338 3.0 8.0 0.00 0.39 0.01 80 1010.1
20210620222842 78 202 4.0 8.0 0.00 0.39 0.01 80 1010.1
20210620222333 78 180 5.0 8.0 0.00 0.39 0.01 80 1010.0
20210620221833 78 202 1.0 5.0 0.00 0.39 0.01 79 1010.0
20210620221317 78 225 3.0 6.0 0.00 0.39 0.01 79 1009.9
20210620220805 78 202 3.0 6.0 0.00 0.39 0.01 79 1009.9
20210620220258 79 112 2.0 6.0 0.00 0.39 0.01 79 1009.9
20210620215752 79 180 3.0 8.0 0.00 0.39 0.01 78 1010.1
20210620215242 79 112 4.0 8.0 0.00 0.39 0.01 77 1010.1
20210620214727 79 248 2.0 4.0 0.00 0.39 0.01 77 1010.0
20210620214212 80 202 2.0 5.0 0.00 0.39 0.01 77 1010.0
20210620213651 80 225 2.0 6.0 0.00 0.39 0.01 77 1009.9
20210620213121 80 158 3.0 7.0 0.00 0.39 0.01 77 1009.9
20210620212616 80 315 2.0 7.0 0.00 0.39 0.01 78 1009.9
20210620212104 79 180 3.0 8.0 0.00 0.39 0.01 78 1009.8
20210620211534 79 180 4.0 8.0 0.00 0.39 0.01 77 1009.8
20210620211021 79 135 3.0 8.0 0.00 0.39 0.01 77 1009.9
20210620210514 79 158 3.0 8.0 0.00 0.39 0.01 76 1009.9
20210620210010 80 202 1.0 5.0 0.00 0.39 0.01 75 1010.0
20210620205458 80 158 2.0 5.0 0.00 0.39 0.01 75 1010.0
20210620204947 79 225 3.0 5.0 0.00 0.39 0.01 76 1010.0
20210620204446 79 202 2.0 6.0 0.00 0.39 0.01 76 1010.0
20210620203907 79 180 4.0 6.0 0.00 0.39 0.01 75 1010.0
20210620203401 80 225 4.0 7.0 0.00 0.39 0.01 74 1010.2
20210620202850 80 135 4.0 7.0 0.00 0.39 0.01 74 1010.2
20210620202335 80 112 3.0 8.0 0.00 0.39 0.01 74 1010.2
20210620201829 80 180 3.0 8.0 0.00 0.39 0.01 74 1010.2
20210620201324 80 180 3.0 7.0 0.00 0.39 0.01 73 1010.2
20210620200814 80 225 4.0 7.0 0.00 0.39 0.01 73 1010.2
20210620200258 80 180 4.0 7.0 0.00 0.39 0.01 73 1010.2
20210620195751 80 180 4.0 8.0 0.00 0.39 0.01 73 1010.2
20210620195236 81 180 6.0 8.0 0.00 0.39 0.01 72 1010.2
20210620194735 81 112 6.0 8.0 0.00 0.39 0.01 72 1010.1
20210620194221 82 180 4.0 7.0 0.00 0.39 0.01 72 1010.1
20210620193714 81 112 4.0 7.0 0.00 0.39 0.01 72 1010.0
20210620193159 82 135 3.0 5.0 0.00 0.39 0.01 71 1010.0
20210620192644 81 135 3.0 7.0 0.00 0.39 0.01 71 1010.0
20210620192143 81 158 4.0 7.0 0.00 0.39 0.01 72 1010.0
20210620191636 82 112 4.0 7.0 0.00 0.39 0.01 71 1010.0
20210620191134 82 112 3.0 7.0 0.00 0.39 0.01 71 1010.1
20210620190619 82 180 4.0 7.0 0.00 0.39 0.01 70 1010.1
20210620190050 82 225 3.0 7.0 0.00 0.39 0.01 70 1010.2
20210620185535 83 158 3.0 7.0 0.00 0.39 0.01 70 1010.2
20210620185029 83 225 2.0 8.0 0.00 0.39 0.01 69 1010.2
20210620184523 83 248 3.0 8.0 0.00 0.39 0.01 69 1010.4
20210620184012 82 270 2.0 7.0 0.00 0.39 0.01 69 1010.4
20210620183512 82 225 3.0 7.0 0.00 0.39 0.01 69 1010.2
20210620183006 82 180 3.0 7.0 0.00 0.39 0.01 69 1010.2
20210620182505 82 248 3.0 5.0 0.00 0.39 0.01 69 1010.4
20210620181934 80 158 2.0 8.0 0.00 0.39 0.01 72 1010.4
20210620181435 82 270 2.0 8.0 0.00 0.39 0.01 69 1010.4
20210620180929 83 180 3.0 8.0 0.00 0.39 0.01 69 1010.5
20210620180427 83 292 3.0 8.0 0.00 0.39 0.01 69 1010.5
20210620175913 81 158 2.0 8.0 0.00 0.39 0.01 71 1010.4
20210620175405 82 135 2.0 5.0 0.00 0.39 0.01 70 1010.4
20210620174836 83 135 3.0 5.0 0.00 0.39 0.01 67 1010.5
20210620174307 84 180 2.0 4.0 0.00 0.39 0.01 62 1010.5
20210620173806 83 202 1.0 4.0 0.00 0.39 0.01 64 1010.5
20210620173250 83 22 1.0 4.0 0.00 0.39 0.01 62 1010.6
20210620172735 85 112 1.0 4.0 0.00 0.39 0.01 61 1010.6
20210620172229 85 22 2.0 4.0 0.00 0.39 0.01 63 1010.7
20210620171725 84 22 2.0 8.0 0.00 0.39 0.01 62 1010.7
20210620171212 84 22 4.0 8.0 0.00 0.39 0.01 63 1010.8
20210620170658 83 112 3.0 6.0 0.00 0.39 0.01 62 1010.8
20210620170143 84 0 3.0 4.0 0.00 0.39 0.01 61 1010.8
20210620165637 85 180 2.0 6.0 0.00 0.39 0.01 61 1010.8
20210620165134 84 292 2.0 6.0 0.00 0.39 0.01 64 1010.8
20210620164620 85 180 2.0 8.0 0.00 0.39 0.01 60 1010.8
20210620164114 85 338 4.0 8.0 0.00 0.39 0.01 59 1010.8
20210620163610 85 90 4.0 6.0 0.00 0.39 0.01 59 1011.0
20210620163057 85 315 4.0 6.0 0.00 0.39 0.01 60 1011.0
20210620162528 85 338 3.0 5.0 0.00 0.39 0.01 61 1011.0
20210620162012 84 292 3.0 5.0 0.00 0.39 0.01 59 1011.0
20210620161505 84 135 2.0 7.0 0.00 0.39 0.01 57 1011.0
20210620161001 85 68 2.0 7.0 0.00 0.39 0.01 60 1011.1
20210620160450 84 202 2.0 6.0 0.00 0.39 0.01 61 1011.1
20210620155940 83 292 2.0 6.0 0.00 0.39 0.01 61 1011.3
20210620155429 82 180 2.0 5.0 0.00 0.39 0.01 61 1011.3
20210620154924 83 180 3.0 5.0 0.00 0.39 0.01 61 1011.5
20210620154413 83 45 1.0 4.0 0.00 0.39 0.01 62 1011.5
20210620153857 82 292 2.0 4.0 0.00 0.39 0.01 64 1011.5
20210620153352 83 202 3.0 4.0 0.00 0.39 0.01 62 1011.4
20210620152836 82 0 2.0 3.0 0.00 0.39 0.01 63 1011.4
20210620152335 82 225 1.0 2.0 0.00 0.39 0.01 64 1011.3
20210620151820 83 202 1.0 3.0 0.00 0.39 0.01 63 1011.3
20210620151314 83 158 1.0 3.0 0.00 0.39 0.01 64 1011.4
20210620150808 83 180 0.0 3.0 0.00 0.39 0.01 64 1011.4
20210620150257 81 158 1.0 3.0 0.00 0.39 0.01 63 1011.4
20210620145742 81 112 2.0 5.0 0.00 0.39 0.01 66 1011.2
20210620145236 81 202 1.0 5.0 0.00 0.39 0.01 63 1011.2
20210620144732 82 68 3.0 5.0 0.00 0.39 0.01 64 1011.2
20210620144219 81 22 2.0 5.0 0.00 0.39 0.01 65 1011.2
20210620143720 81 112 3.0 6.0 0.00 0.39 0.01 60 1011.3
20210620143158 80 270 2.0 6.0 0.00 0.39 0.01 63 1011.3
20210620142654 81 158 1.0 4.0 0.00 0.39 0.01 63 1011.3
20210620142142 80 225 2.0 3.0 0.00 0.39 0.01 66 1011.3
20210620141627 80 68 1.0 4.0 0.00 0.39 0.01 64 1011.3
20210620141121 79 225 2.0 5.0 0.00 0.39 0.01 67 1011.5
20210620140616 79 45 2.0 5.0 0.00 0.39 0.01 65 1011.5
20210620140104 79 112 2.0 5.0 0.00 0.39 0.01 68 1011.5
20210620135551 79 180 1.0 4.0 0.00 0.39 0.01 66 1011.5
20210620135043 79 202 2.0 4.0 0.00 0.39 0.01 68 1011.5
20210620134540 79 292 0.0 3.0 0.00 0.39 0.01 67 1011.7
20210620134027 78 180 0.0 1.0 0.00 0.39 0.01 70 1011.7
20210620133458 78 68 0.0 3.0 0.00 0.39 0.01 68 1011.7
20210620132913 77 22 1.0 3.0 0.00 0.39 0.01 71 1011.7
20210620132358 78 180 0.0 3.0 0.00 0.39 0.01 68 1011.8
20210620131842 78 202 1.0 5.0 0.00 0.39 0.01 67 1011.8
20210620131336 79 45 3.0 5.0 0.00 0.39 0.01 66 1011.7
20210620130831 78 22 2.0 4.0 0.00 0.39 0.01 68 1011.7
20210620130320 76 45 1.0 4.0 0.00 0.39 0.01 71 1011.7
20210620125805 77 0 2.0 6.0 0.00 0.39 0.01 71 1011.7
20210620125258 77 22 2.0 6.0 0.00 0.39 0.01 70 1011.7
20210620124728 74 248 1.0 3.0 0.00 0.39 0.01 75 1011.7
20210620124158 76 22 2.0 3.0 0.00 0.39 0.01 71 1011.7
20210620123628 74 68 0.0 2.0 0.00 0.39 0.01 73 1011.5
20210620123058 74 225 1.0 5.0 0.00 0.39 0.01 75 1011.5
20210620122555 75 22 4.0 5.0 0.00 0.39 0.01 71 1011.6
20210620122043 73 68 3.0 5.0 0.00 0.39 0.01 75 1011.6
20210620121527 73 22 1.0 3.0 0.00 0.39 0.01 78 1011.6
20210620121021 72 45 1.0 3.0 0.00 0.39 0.01 78 1011.6
20210620120451 74 45 0.0 3.0 0.00 0.39 0.01 77 1011.6
20210620115920 72 112 0.0 3.0 0.00 0.39 0.01 78 1011.5
20210620115416 72 180 0.0 1.0 0.00 0.39 0.01 81 1011.5
20210620114904 72 202 0.0 2.0 0.00 0.39 0.01 81 1011.2
20210620114350 72 225 0.0 2.0 0.00 0.39 0.01 82 1011.2
20210620113843 70 248 0.0 0.0 0.00 0.39 0.01 86 1011.2
20210620113339 70 180 0.0 0.0 0.00 0.39 0.01 87 1011.2
20210620112827 70 202 0.0 0.0 0.00 0.39 0.01 86 1011.2
20210620112313 68 135 0.0 0.0 0.00 0.39 0.01 90 1011.4